Tracking 35274 objects as of 11-Sep-2026
HD Live streaming from Space Station
objects crossing your sky now

COSMOS 1813 DEB


COSMOS 1813 DEB is no longer on orbit


NORAD ID: 17920
Int'l Code: 1987-004DM
Launch date: January 15, 1987
Source: Commonwealth of Independent States (former USSR) (CIS)
Launch site: PLESETSK MISSILE AND SPACE COMPLEX (PKMTR)
Decay date: 1988-08-03

Note: This is SATELLITE DEBRIS
Your satellite tracking list
Your tracking list is empty




NASA's NSSDC Master Catalog

Two Line Element Set (TLE):
1 17920U 87004 DM 88214.86396039  .01838979 +88000-5 +57505-3 0  9996
2 17920 072.8038 032.5481 0035155 218.1924 162.8701 16.24538343082743
Source of the keplerian elements: AFSPC